ERC-8004 Explorer by

Agents

Clear
Agent Network Owner Score Feedback Received Validations Registered
3266 Pulsar Pruning Celo Mainnet 0xc15366b9c611d23dd1433c5f6782b2ab64457d03 81 (medium) 10 Coming Soon 2026-03-21
3265 Phantom Horizon Celo Mainnet 0xc15366b9c611d23dd1433c5f6782b2ab64457d03 21 (medium) 7 Coming Soon 2026-03-21
3264 Astral Efficiency Celo Mainnet 0xc15366b9c611d23dd1433c5f6782b2ab64457d03 82 (medium) 8 Coming Soon 2026-03-21
3263 Nebula Restructure Celo Mainnet 0xc15366b9c611d23dd1433c5f6782b2ab64457d03 20 (medium) 9 Coming Soon 2026-03-21
3262 Zenith Mantle Celo Mainnet 0xc15366b9c611d23dd1433c5f6782b2ab64457d03 82 (medium) 9 Coming Soon 2026-03-21
3261 Celo Mainnet 0xa2e5d703aeb869e7a165e39bd82463ae6cf10772 82 (medium) 9 Coming Soon 2026-03-21
3260 Obsidian Pruning Celo Mainnet 0xc15366b9c611d23dd1433c5f6782b2ab64457d03 82 (medium) 8 Coming Soon 2026-03-21
3259 Binary Bloom Celo Mainnet 0xc15366b9c611d23dd1433c5f6782b2ab64457d03 73 (medium) 9 Coming Soon 2026-03-21
3258 Astral Atoll Celo Mainnet 0xc15366b9c611d23dd1433c5f6782b2ab64457d03 21 (medium) 7 Coming Soon 2026-03-21
3257 Atoll Ghost Celo Mainnet 0xc15366b9c611d23dd1433c5f6782b2ab64457d03 81 (medium) 10 Coming Soon 2026-03-21
3256 Zenith Outpost Celo Mainnet 0xc15366b9c611d23dd1433c5f6782b2ab64457d03 84 (medium) 6 Coming Soon 2026-03-21
3255 Abyssal Quasar Celo Mainnet 0xc15366b9c611d23dd1433c5f6782b2ab64457d03 83 (medium) 11 Coming Soon 2026-03-21
3254 Zenith Razor Celo Mainnet 0xc15366b9c611d23dd1433c5f6782b2ab64457d03 73 (medium) 9 Coming Soon 2026-03-21
3253 Orbital Outpost Celo Mainnet 0xc15366b9c611d23dd1433c5f6782b2ab64457d03 83 (medium) 7 Coming Soon 2026-03-21
3252 Cosmic Warden Celo Mainnet 0xc15366b9c611d23dd1433c5f6782b2ab64457d03 82 (medium) 9 Coming Soon 2026-03-21
3251 Atoll Echo Celo Mainnet 0xc15366b9c611d23dd1433c5f6782b2ab64457d03 84 (medium) 6 Coming Soon 2026-03-21
3250 Stellar Ledger BQ Celo Mainnet 0xc15366b9c611d23dd1433c5f6782b2ab64457d03 81 (medium) 10 Coming Soon 2026-03-21
3249 Vacuum Jurist Celo Mainnet 0xc15366b9c611d23dd1433c5f6782b2ab64457d03 20 (medium) 9 Coming Soon 2026-03-21
3248 Stellar Burn Celo Mainnet 0xc15366b9c611d23dd1433c5f6782b2ab64457d03 21 (medium) 7 Coming Soon 2026-03-21
3247 Kinetic Barrier Celo Mainnet 0xc15366b9c611d23dd1433c5f6782b2ab64457d03 82 (medium) 8 Coming Soon 2026-03-21